Terminal Aerodrome Forecast
Issued by NWS Atlanta, GA

Home | Current Version | Previous Version | Text Only | Print | Product List | Glossary On
Versions: 1 2 3 4 5 6 7 8 9 10 11 12 13 14 15 16 17 18 19 20 21 22 23 24 25 26 27 28 29 30 31 32 33 34 35
000
FTAK31 PAJN 252300
TAFAHN
TAF
PAHN 252337Z 2600/2624 09010G25KT P6SM VCSH SCT040 BKN045 OVC070
     FM260400 10010KT P6SM SCT030 BKN070
     FM261200 31010KT P6SM -SHSN BKN040
     FM261800 31010KT P6SM VCSH BKN050
      AMD LTD TO CLD VIS AND WIND=

USA.gov is the U.S. government's official web portal to all federal, state and local government web resources and services.